Time,TemperatureF,DewpointF,PressureIn,WindDirection,WindDirectionDegrees,WindSpeedMPH,WindSpeedGustMPH,Humidity,HourlyPrecipIn,Conditions,Clouds,dailyrainin,SoftwareType,DateUTC
2013-03-04 00:01:00,33.0,31.0,30.28,NE,37,0.0,0.0,92,-99.99,,,-99.99,,2013-03-04 08:01:00,
2013-03-04 00:11:00,33.0,31.0,30.28,NE,37,0.0,0.0,92,-99.99,,,-99.99,,2013-03-04 08:11:00,
2013-03-04 00:21:00,33.0,31.0,30.28,NE,37,0.0,0.0,92,-99.99,,,-99.99,,2013-03-04 08:21:00,
2013-03-04 00:31:00,33.0,31.0,30.28,NE,37,0.0,0.0,93,-99.99,,,-99.99,,2013-03-04 08:31:00,
2013-03-04 00:41:00,33.0,31.0,30.28,NE,37,0.0,0.0,93,-99.99,,,-99.99,,2013-03-04 08:41:00,
2013-03-04 00:52:00,33.0,31.0,30.27,NE,37,0.0,1.0,93,-99.99,,,-99.99,,2013-03-04 08:52:00,
2013-03-04 01:01:00,32.0,30.0,30.27,NE,37,0.0,1.0,93,-99.99,,,-99.99,,2013-03-04 09:01:00,
2013-03-04 01:11:00,32.0,30.0,30.27,NE,37,0.0,1.0,93,-99.99,,,-99.99,,2013-03-04 09:11:00,
2013-03-04 01:21:00,32.0,30.0,30.27,NE,37,0.0,0.0,93,-99.99,,,-99.99,,2013-03-04 09:21:00,
2013-03-04 01:31:00,32.0,30.0,30.27,NE,37,0.0,0.0,93,-99.99,,,-99.99,,2013-03-04 09:31:00,
2013-03-04 01:41:00,32.0,30.0,30.27,NE,37,0.0,0.0,93,-99.99,,,-99.99,,2013-03-04 09:41:00,
2013-03-04 01:51:00,32.0,30.0,30.27,NE,37,0.0,0.0,93,-99.99,,,-99.99,,2013-03-04 09:51:00,
2013-03-04 02:01:00,32.0,30.0,30.27,NE,37,0.0,0.0,93,-99.99,,,-99.99,,2013-03-04 10:01:00,
2013-03-04 02:11:00,32.0,30.0,30.27,NE,37,0.0,0.0,93,-99.99,,,-99.99,,2013-03-04 10:11:00,
2013-03-04 02:21:00,31.0,29.0,30.27,NE,37,0.0,0.0,93,-99.99,,,-99.99,,2013-03-04 10:21:00,
2013-03-04 02:31:00,31.0,29.0,30.26,NE,37,0.0,0.0,94,-99.99,,,-99.99,,2013-03-04 10:31:00,
2013-03-04 02:41:00,31.0,29.0,30.26,NE,37,0.0,0.0,94,-99.99,,,-99.99,,2013-03-04 10:41:00,
2013-03-04 02:52:00,31.0,29.0,30.26,NE,37,0.0,0.0,94,-99.99,,,-99.99,,2013-03-04 10:52:00,
2013-03-04 03:01:00,31.0,29.0,30.26,NE,37,0.0,0.0,94,-99.99,,,-99.99,,2013-03-04 11:01:00,
2013-03-04 03:11:00,31.0,29.0,30.26,NE,37,0.0,0.0,94,-99.99,,,-99.99,,2013-03-04 11:11:00,
2013-03-04 03:21:00,31.0,29.0,30.26,NE,37,0.0,0.0,94,-99.99,,,-99.99,,2013-03-04 11:21:00,
2013-03-04 03:31:00,31.0,29.0,30.25,NE,36,1.0,2.0,94,-99.99,,,-99.99,,2013-03-04 11:31:00,
2013-03-04 03:41:00,31.0,29.0,30.25,NE,36,1.0,2.0,94,-99.99,,,-99.99,,2013-03-04 11:41:00,
2013-03-04 03:52:00,31.0,29.0,30.25,NE,35,0.0,1.0,94,-99.99,,,-99.99,,2013-03-04 11:52:00,
2013-03-04 04:01:00,31.0,29.0,30.24,NE,35,0.0,1.0,94,-99.99,,,-99.99,,2013-03-04 12:01:00,
2013-03-04 04:11:00,31.0,29.0,30.24,NE,35,0.0,1.0,94,-99.99,,,-99.99,,2013-03-04 12:11:00,
2013-03-04 04:22:00,31.0,29.0,30.24,NNW,344,0.0,3.0,94,-99.99,,,-99.99,,2013-03-04 12:22:00,
2013-03-04 04:32:00,31.0,29.0,30.24,NNW,344,0.0,1.0,94,-99.99,,,-99.99,,2013-03-04 12:32:00,
2013-03-04 04:42:00,31.0,29.0,30.24,NNW,344,0.0,1.0,94,-99.99,,,-99.99,,2013-03-04 12:42:00,
2013-03-04 04:52:00,31.0,29.0,30.24,NNW,344,0.0,1.0,94,-99.99,,,-99.99,,2013-03-04 12:52:00,
2013-03-04 05:01:00,31.0,29.0,30.24,NNW,344,0.0,1.0,94,-99.99,,,-99.99,,2013-03-04 13:01:00,
2013-03-04 05:11:00,31.0,29.0,30.24,NNW,344,0.0,1.0,94,-99.99,,,-99.99,,2013-03-04 13:11:00,
2013-03-04 05:21:00,31.0,29.0,30.24,NNW,344,0.0,2.0,94,-99.99,,,-99.99,,2013-03-04 13:21:00,
2013-03-04 05:31:00,31.0,29.0,30.24,NNW,344,0.0,1.0,94,-99.99,,,-99.99,,2013-03-04 13:31:00,
2013-03-04 05:41:00,31.0,29.0,30.24,NNW,344,0.0,1.0,94,-99.99,,,-99.99,,2013-03-04 13:41:00,
2013-03-04 05:52:00,31.0,29.0,30.23,NNW,344,1.0,3.0,94,-99.99,,,-99.99,,2013-03-04 13:52:00,
2013-03-04 06:01:00,31.0,29.0,30.23,NW,321,1.0,4.0,94,-99.99,,,-99.99,,2013-03-04 14:01:00,
2013-03-04 06:11:00,31.0,29.0,30.23,NW,321,1.0,4.0,94,-99.99,,,-99.99,,2013-03-04 14:11:00,
2013-03-04 06:21:00,31.0,29.0,30.23,NW,321,0.0,1.0,93,-99.99,,,-99.99,,2013-03-04 14:21:00,
2013-03-04 06:31:00,30.0,28.0,30.22,NW,321,0.0,1.0,93,-99.99,,,-99.99,,2013-03-04 14:31:00,
2013-03-04 06:41:00,30.0,28.0,30.22,NW,321,0.0,1.0,93,-99.99,,,-99.99,,2013-03-04 14:41:00,
2013-03-04 06:52:00,30.0,28.0,30.22,NW,321,0.0,1.0,93,-99.99,,,-99.99,,2013-03-04 14:52:00,
2013-03-04 07:01:00,30.0,28.0,30.22,NW,321,0.0,1.0,93,-99.99,,,-99.99,,2013-03-04 15:01:00,
2013-03-04 07:11:00,30.0,28.0,30.22,NW,321,0.0,1.0,93,-99.99,,,-99.99,,2013-03-04 15:11:00,
2013-03-04 07:21:00,30.0,28.0,30.21,NW,321,0.0,1.0,94,-99.99,,,-99.99,,2013-03-04 15:21:00,
2013-03-04 07:31:00,30.0,28.0,30.21,NW,321,0.0,1.0,94,-99.99,,,-99.99,,2013-03-04 15:31:00,
2013-03-04 07:41:00,30.0,28.0,30.21,NW,321,0.0,1.0,94,-99.99,,,-99.99,,2013-03-04 15:41:00,
2013-03-04 07:52:00,30.0,28.0,30.21,NW,321,0.0,0.0,94,-99.99,,,-99.99,,2013-03-04 15:52:00,
2013-03-04 08:02:00,31.0,29.0,30.21,NW,321,2.0,3.0,94,-99.99,,,-99.99,,2013-03-04 16:02:00,
2013-03-04 08:11:00,31.0,29.0,30.21,NW,321,2.0,3.0,94,-99.99,,,-99.99,,2013-03-04 16:11:00,
2013-03-04 08:21:00,32.0,30.0,30.22,NW,315,1.0,4.0,94,-99.99,,,-99.99,,2013-03-04 16:21:00,
2013-03-04 08:31:00,34.0,31.0,30.22,NW,316,2.0,3.0,89,-99.99,,,-99.99,,2013-03-04 16:31:00,
2013-03-04 08:41:00,34.0,31.0,30.22,NW,316,2.0,3.0,89,-99.99,,,-99.99,,2013-03-04 16:41:00,
2013-03-04 08:52:00,34.0,30.0,30.21,NW,316,1.0,4.0,85,-99.99,,,-99.99,,2013-03-04 16:52:00,
2013-03-04 09:02:00,35.0,31.0,30.21,NW,316,0.0,2.0,85,-99.99,,,-99.99,,2013-03-04 17:02:00,
2013-03-04 09:11:00,35.0,31.0,30.21,NW,316,0.0,2.0,85,-99.99,,,-99.99,,2013-03-04 17:11:00,
2013-03-04 09:21:00,36.0,31.0,30.21,NW,316,2.0,4.0,81,-99.99,,,-99.99,,2013-03-04 17:21:00,
2013-03-04 09:31:00,36.0,30.0,30.20,NNW,333,1.0,5.0,79,-99.99,,,-99.99,,2013-03-04 17:31:00,
2013-03-04 09:42:00,36.0,30.0,30.20,NNW,333,1.0,5.0,79,-99.99,,,-99.99,,2013-03-04 17:42:00,
2013-03-04 09:52:00,37.0,31.0,30.20,NE,44,2.0,4.0,79,-99.99,,,-99.99,,2013-03-04 17:52:00,
2013-03-04 10:01:00,38.0,31.0,30.20,NNW,333,1.0,5.0,77,-99.99,,,-99.99,,2013-03-04 18:01:00,
2013-03-04 10:11:00,38.0,31.0,30.20,NNW,333,1.0,5.0,77,-99.99,,,-99.99,,2013-03-04 18:11:00,
2013-03-04 10:21:00,39.0,31.0,30.19,NW,323,0.0,5.0,73,-99.99,,,-99.99,,2013-03-04 18:21:00,
2013-03-04 10:32:00,39.0,31.0,30.19,NNW,344,1.0,5.0,72,-99.99,,,-99.99,,2013-03-04 18:32:00,
2013-03-04 10:42:00,39.0,31.0,30.19,NNW,344,1.0,5.0,72,-99.99,,,-99.99,,2013-03-04 18:42:00,
2013-03-04 10:52:00,41.0,31.0,30.19,NE,40,2.0,4.0,68,-99.99,,,-99.99,,2013-03-04 18:52:00,
2013-03-04 11:01:00,42.0,31.0,30.18,NE,51,3.0,7.0,66,-99.99,,,-99.99,,2013-03-04 19:01:00,
2013-03-04 11:11:00,42.0,31.0,30.18,NE,51,3.0,7.0,66,-99.99,,,-99.99,,2013-03-04 19:11:00,
2013-03-04 11:21:00,43.0,32.0,30.18,NE,53,5.0,6.0,64,-99.99,,,-99.99,,2013-03-04 19:21:00,
2013-03-04 11:31:00,44.0,31.0,30.18,NE,39,4.0,7.0,59,-99.99,,,-99.99,,2013-03-04 19:31:00,
2013-03-04 11:41:00,44.0,31.0,30.18,NE,39,4.0,7.0,59,-99.99,,,-99.99,,2013-03-04 19:41:00,
2013-03-04 11:51:00,45.0,31.0,30.17,NNE,24,2.0,6.0,57,-99.99,,,-99.99,,2013-03-04 19:51:00,
2013-03-04 12:01:00,46.0,31.0,30.16,NE,43,2.0,9.0,55,-99.99,,,-99.99,,2013-03-04 20:01:00,
2013-03-04 12:11:00,47.0,30.0,30.15,NNE,15,2.0,6.0,51,-99.99,,,-99.99,,2013-03-04 20:11:00,
2013-03-04 12:21:00,47.0,30.0,30.15,NNE,15,2.0,6.0,51,-99.99,,,-99.99,,2013-03-04 20:21:00,
2013-03-04 12:32:00,48.0,30.0,30.14,NE,54,2.0,7.0,49,-99.99,,,-99.99,,2013-03-04 20:32:00,
2013-03-04 12:41:00,48.0,30.0,30.14,NE,54,2.0,7.0,49,-99.99,,,-99.99,,2013-03-04 20:41:00,
2013-03-04 12:52:00,49.0,29.0,30.14,NNW,348,1.0,5.0,46,-99.99,,,-99.99,,2013-03-04 20:52:00,
2013-03-04 13:01:00,50.0,28.0,30.12,North,9,2.0,6.0,43,-99.99,,,-99.99,,2013-03-04 21:01:00,
2013-03-04 13:11:00,50.0,28.0,30.12,North,9,2.0,6.0,43,-99.99,,,-99.99,,2013-03-04 21:11:00,
2013-03-04 13:21:00,50.0,27.0,30.12,NNE,24,3.0,10.0,41,-99.99,,,-99.99,,2013-03-04 21:21:00,
2013-03-04 13:31:00,51.0,28.0,30.11,NE,53,2.0,6.0,41,-99.99,,,-99.99,,2013-03-04 21:31:00,
2013-03-04 13:41:00,51.0,28.0,30.11,NE,53,2.0,6.0,41,-99.99,,,-99.99,,2013-03-04 21:41:00,
2013-03-04 13:52:00,51.0,28.0,30.09,North,355,2.0,8.0,40,-99.99,,,-99.99,,2013-03-04 21:52:00,
2013-03-04 14:01:00,51.0,27.0,30.09,NE,40,4.0,9.0,39,-99.99,,,-99.99,,2013-03-04 22:01:00,
2013-03-04 14:11:00,51.0,27.0,30.09,NE,40,4.0,9.0,39,-99.99,,,-99.99,,2013-03-04 22:11:00,
2013-03-04 14:21:00,51.0,27.0,30.08,NE,55,1.0,10.0,39,-99.99,,,-99.99,,2013-03-04 22:21:00,
2013-03-04 14:31:00,52.0,28.0,30.07,NNE,23,1.0,4.0,40,-99.99,,,-99.99,,2013-03-04 22:31:00,
2013-03-04 14:42:00,52.0,28.0,30.07,NNE,23,1.0,4.0,40,-99.99,,,-99.99,,2013-03-04 22:42:00,
2013-03-04 14:52:00,52.0,28.0,30.07,NNE,25,3.0,5.0,39,-99.99,,,-99.99,,2013-03-04 22:52:00,
2013-03-04 15:01:00,53.0,27.0,30.06,ENE,66,2.0,7.0,36,-99.99,,,-99.99,,2013-03-04 23:01:00,
2013-03-04 15:11:00,53.0,27.0,30.06,ENE,66,2.0,7.0,36,-99.99,,,-99.99,,2013-03-04 23:11:00,
2013-03-04 15:21:00,53.0,27.0,30.05,ENE,69,4.0,9.0,37,-99.99,,,-99.99,,2013-03-04 23:21:00,
2013-03-04 15:31:00,53.0,25.0,30.05,NE,55,6.0,13.0,34,-99.99,,,-99.99,,2013-03-04 23:31:00,
2013-03-04 15:41:00,53.0,25.0,30.05,NE,55,6.0,13.0,34,-99.99,,,-99.99,,2013-03-04 23:41:00,
2013-03-04 15:52:00,53.0,25.0,30.04,ENE,63,1.0,8.0,34,-99.99,,,-99.99,,2013-03-04 23:52:00,
2013-03-04 16:01:00,53.0,25.0,30.03,ENE,66,3.0,6.0,34,-99.99,,,-99.99,,2013-03-05 00:01:00,
2013-03-04 16:11:00,53.0,25.0,30.03,ENE,66,3.0,6.0,34,-99.99,,,-99.99,,2013-03-05 00:11:00,
2013-03-04 16:21:00,52.0,26.0,30.01,ENE,62,1.0,4.0,36,-99.99,,,-99.99,,2013-03-05 00:21:00,
2013-03-04 16:32:00,52.0,26.0,30.01,NE,51,0.0,5.0,36,-99.99,,,-99.99,,2013-03-05 00:32:00,
2013-03-04 16:41:00,52.0,26.0,30.01,NE,51,0.0,5.0,36,-99.99,,,-99.99,,2013-03-05 00:41:00,
2013-03-04 16:51:00,52.0,28.0,30.00,NE,51,0.0,4.0,40,-99.99,,,-99.99,,2013-03-05 00:51:00,
2013-03-04 17:01:00,52.0,27.0,30.00,NE,41,0.0,4.0,37,-99.99,,,-99.99,,2013-03-05 01:01:00,
2013-03-04 17:11:00,52.0,27.0,30.00,NE,41,0.0,4.0,37,-99.99,,,-99.99,,2013-03-05 01:11:00,
2013-03-04 17:21:00,52.0,28.0,29.99,NE,41,0.0,4.0,40,-99.99,,,-99.99,,2013-03-05 01:21:00,
2013-03-04 17:32:00,51.0,28.0,29.99,NE,41,0.0,1.0,41,-99.99,,,-99.99,,2013-03-05 01:32:00,
2013-03-04 17:41:00,51.0,28.0,29.99,NE,41,0.0,1.0,41,-99.99,,,-99.99,,2013-03-05 01:41:00,
2013-03-04 17:51:00,50.0,28.0,29.99,NE,41,0.0,1.0,42,-99.99,,,-99.99,,2013-03-05 01:51:00,
2013-03-04 18:01:00,49.0,30.0,29.98,NE,41,0.0,1.0,48,-99.99,,,-99.99,,2013-03-05 02:01:00,
2013-03-04 18:11:00,49.0,30.0,29.98,NE,41,0.0,1.0,48,-99.99,,,-99.99,,2013-03-05 02:11:00,
2013-03-04 18:21:00,48.0,31.0,29.98,NE,41,0.0,1.0,52,-99.99,,,-99.99,,2013-03-05 02:21:00,
2013-03-04 18:31:00,46.0,32.0,29.98,NE,40,0.0,1.0,58,-99.99,,,-99.99,,2013-03-05 02:31:00,
2013-03-04 18:41:00,46.0,32.0,29.98,NE,40,0.0,1.0,58,-99.99,,,-99.99,,2013-03-05 02:41:00,
2013-03-04 18:52:00,46.0,29.0,29.98,NE,42,0.0,3.0,51,-99.99,,,-99.99,,2013-03-05 02:52:00,
2013-03-04 19:01:00,47.0,27.0,29.98,East,95,2.0,9.0,46,-99.99,,,-99.99,,2013-03-05 03:01:00,
2013-03-04 19:11:00,47.0,27.0,29.98,East,95,2.0,9.0,46,-99.99,,,-99.99,,2013-03-05 03:11:00,
2013-03-04 19:21:00,47.0,26.0,29.97,ENE,59,0.0,3.0,44,-99.99,,,-99.99,,2013-03-05 03:21:00,
2013-03-04 19:31:00,46.0,26.0,29.96,East,80,0.0,3.0,45,-99.99,,,-99.99,,2013-03-05 03:31:00,
2013-03-04 19:41:00,46.0,26.0,29.96,East,80,0.0,3.0,45,-99.99,,,-99.99,,2013-03-05 03:41:00,
2013-03-04 19:52:00,46.0,26.0,29.96,East,81,1.0,2.0,45,-99.99,,,-99.99,,2013-03-05 03:52:00,
2013-03-04 20:01:00,45.0,27.0,29.96,NE,34,0.0,2.0,48,-99.99,,,-99.99,,2013-03-05 04:01:00,
2013-03-04 20:11:00,45.0,27.0,29.96,NE,34,0.0,2.0,48,-99.99,,,-99.99,,2013-03-05 04:11:00,
2013-03-04 20:21:00,45.0,27.0,29.96,NE,36,1.0,5.0,48,-99.99,,,-99.99,,2013-03-05 04:21:00,
2013-03-04 20:31:00,44.0,28.0,29.95,ENE,70,1.0,3.0,53,-99.99,,,-99.99,,2013-03-05 04:31:00,
2013-03-04 20:41:00,44.0,28.0,29.95,ENE,70,1.0,3.0,53,-99.99,,,-99.99,,2013-03-05 04:41:00,
2013-03-04 20:51:00,44.0,27.0,29.95,NNE,18,2.0,5.0,50,-99.99,,,-99.99,,2013-03-05 04:51:00,
2013-03-04 21:01:00,44.0,27.0,29.95,NE,47,0.0,4.0,51,-99.99,,,-99.99,,2013-03-05 05:01:00,
2013-03-04 21:11:00,44.0,27.0,29.95,NE,47,0.0,4.0,51,-99.99,,,-99.99,,2013-03-05 05:11:00,
2013-03-04 21:22:00,44.0,28.0,29.94,NW,325,0.0,2.0,52,-99.99,,,-99.99,,2013-03-05 05:22:00,
2013-03-04 21:31:00,43.0,26.0,29.94,NNE,33,1.0,3.0,50,-99.99,,,-99.99,,2013-03-05 05:31:00,
2013-03-04 21:41:00,43.0,26.0,29.94,NNE,33,1.0,3.0,50,-99.99,,,-99.99,,2013-03-05 05:41:00,
2013-03-04 21:52:00,44.0,27.0,29.94,NE,34,0.0,3.0,50,-99.99,,,-99.99,,2013-03-05 05:52:00,
2013-03-04 22:01:00,43.0,27.0,29.94,NE,34,0.0,2.0,53,-99.99,,,-99.99,,2013-03-05 06:01:00,
2013-03-04 22:11:00,43.0,27.0,29.94,NE,34,0.0,2.0,53,-99.99,,,-99.99,,2013-03-05 06:11:00,
2013-03-04 22:21:00,42.0,27.0,29.94,NE,34,0.0,0.0,56,-99.99,,,-99.99,,2013-03-05 06:21:00,
2013-03-04 22:31:00,41.0,27.0,29.94,NE,34,0.0,1.0,56,-99.99,,,-99.99,,2013-03-05 06:31:00,
2013-03-04 22:41:00,41.0,27.0,29.94,NE,34,0.0,1.0,56,-99.99,,,-99.99,,2013-03-05 06:41:00,
2013-03-04 22:52:00,41.0,27.0,29.93,NE,34,0.0,1.0,57,-99.99,,,-99.99,,2013-03-05 06:52:00,
2013-03-04 23:01:00,41.0,27.0,29.91,NE,34,0.0,1.0,57,-99.99,,,-99.99,,2013-03-05 07:01:00,
2013-03-04 23:11:00,41.0,27.0,29.91,NE,34,0.0,1.0,57,-99.99,,,-99.99,,2013-03-05 07:11:00,
2013-03-04 23:21:00,42.0,27.0,29.91,NE,34,0.0,3.0,55,-99.99,,,-99.99,,2013-03-05 07:21:00,
2013-03-04 23:31:00,43.0,25.0,29.91,NE,55,3.0,4.0,49,-99.99,,,-99.99,,2013-03-05 07:31:00,
2013-03-04 23:41:00,43.0,25.0,29.91,NE,55,3.0,4.0,49,-99.99,,,-99.99,,2013-03-05 07:41:00,
2013-03-04 23:51:00,44.0,26.0,29.91,NE,42,1.0,3.0,49,-99.99,,,-99.99,,2013-03-05 07:51:00,